QFA1002 YMHB-YMML

Flight info

Callsign QFA1002
Flight time 0h 59m
Altitude 38000
Route TASUM H111 LT H215 RAZZI W687 ML
Aircraft B738/M-SDE2E3FGHIRWXY/LB1

Departure

Time 2026-04-26 04:59
Airport Hobart International Airport (YMHB)

Arrival

Time 2026-04-26 05:59
Airport Melbourne Airport (YMML)
Time Latitude Longitude Altitude Speed Heading
2026-04-26 04:39 -42.83682 147.50626 33 ft 0 kts 223°
2026-04-26 04:49 -42.83676 147.50633 33 ft 2 kts 223°
2026-04-26 04:49 -42.83666 147.50647 33 ft 2 kts 223°
2026-04-26 04:49 -42.83655 147.50661 33 ft 2 kts 226°
2026-04-26 04:50 -42.83647 147.50673 33 ft 1 kts 209°
2026-04-26 04:50 -42.83638 147.50674 33 ft 1 kts 150°
2026-04-26 04:50 -42.83630 147.50661 32 ft 2 kts 127°
2026-04-26 04:50 -42.83620 147.50647 32 ft 2 kts 137°
2026-04-26 04:51 -42.83609 147.50633 32 ft 2 kts 134°
2026-04-26 04:51 -42.83602 147.50624 32 ft 0 kts 135°
2026-04-26 04:54 -42.83608 147.50638 32 ft 3 kts 82°
2026-04-26 04:54 -42.83578 147.50693 32 ft 14 kts 65°
2026-04-26 04:55 -42.83614 147.50807 32 ft 13 kts 135°
2026-04-26 04:55 -42.83674 147.50891 32 ft 11 kts 134°
2026-04-26 04:55 -42.83730 147.50967 32 ft 11 kts 136°
2026-04-26 04:55 -42.83788 147.51045 30 ft 11 kts 134°
2026-04-26 04:56 -42.83844 147.51129 29 ft 12 kts 131°
2026-04-26 04:56 -42.83833 147.51231 28 ft 15 kts 32°
2026-04-26 04:56 -42.83782 147.51401 28 ft 27 kts 123°
2026-04-26 04:56 -42.83911 147.51582 29 ft 25 kts 136°
2026-04-26 04:57 -42.84032 147.51746 30 ft 23 kts 134°
2026-04-26 04:57 -42.84145 147.51900 32 ft 22 kts 134°
2026-04-26 04:57 -42.84249 147.52045 33 ft 20 kts 134°
2026-04-26 04:57 -42.84350 147.52185 33 ft 22 kts 134°
2026-04-26 04:58 -42.84495 147.52295 33 ft 23 kts 158°
2026-04-26 04:58 -42.84547 147.52425 34 ft 17 kts 13°
2026-04-26 04:58 -42.84508 147.52393 33 ft 0 kts 316°
2026-04-26 04:58 -42.84504 147.52387 33 ft 4 kts 316°
2026-04-26 04:59 -42.84309 147.52119 33 ft 84 kts 315°
2026-04-26 04:59 -42.83684 147.51273 33 ft 163 kts 317°
2026-04-26 04:59 -42.82875 147.50185 933 ft 165 kts 316°
2026-04-26 04:59 -42.82091 147.49136 1916 ft 161 kts 314°
2026-04-26 05:00 -42.81309 147.48051 2454 ft 168 kts 313°
2026-04-26 05:00 -42.80455 147.46883 2923 ft 180 kts 314°
2026-04-26 05:00 -42.79541 147.45656 3417 ft 191 kts 314°
2026-04-26 05:00 -42.78568 147.44327 3844 ft 207 kts 313°
2026-04-26 05:01 -42.77519 147.42883 4326 ft 222 kts 313°
2026-04-26 05:01 -42.76401 147.41351 4890 ft 233 kts 313°
2026-04-26 05:01 -42.75239 147.39763 5495 ft 243 kts 313°
2026-04-26 05:01 -42.74048 147.38130 6302 ft 245 kts 313°
2026-04-26 05:02 -42.72864 147.36508 7138 ft 245 kts 313°
2026-04-26 05:02 -42.71665 147.34866 7950 ft 247 kts 314°
2026-04-26 05:02 -42.70462 147.33225 8806 ft 248 kts 313°
2026-04-26 05:02 -42.69247 147.31563 9697 ft 248 kts 313°
2026-04-26 05:03 -42.68037 147.29909 10426 ft 254 kts 313°
2026-04-26 05:03 -42.66753 147.28152 10964 ft 268 kts 313°
2026-04-26 05:03 -42.65402 147.26308 11489 ft 283 kts 313°
2026-04-26 05:03 -42.63888 147.24480 11974 ft 300 kts 322°
2026-04-26 05:04 -42.62045 147.23122 12692 ft 311 kts 335°
2026-04-26 05:04 -42.59883 147.22662 13535 ft 327 kts 358°
2026-04-26 05:04 -42.57632 147.23454 14336 ft 344 kts 15°
2026-04-26 05:04 -42.55450 147.24828 15244 ft 349 kts 19°
2026-04-26 05:05 -42.53312 147.26320 16114 ft 352 kts 20°
2026-04-26 05:05 -42.51107 147.27853 16904 ft 355 kts 20°
2026-04-26 05:05 -42.48930 147.29317 17749 ft 356 kts 19°
2026-04-26 05:05 -42.46681 147.30780 18441 ft 360 kts 19°
2026-04-26 05:06 -42.44400 147.32231 19097 ft 366 kts 19°
2026-04-26 05:06 -42.42068 147.33697 19714 ft 372 kts 19°
2026-04-26 05:06 -42.39714 147.35175 20434 ft 374 kts 19°
2026-04-26 05:06 -42.37342 147.36653 21034 ft 379 kts 18°
2026-04-26 05:07 -42.34906 147.37987 21662 ft 379 kts 13°
2026-04-26 05:07 -42.32383 147.38844 22186 ft 378 kts
2026-04-26 05:07 -42.29738 147.39040 22791 ft 376 kts 353°
2026-04-26 05:07 -42.27163 147.38715 23334 ft 377 kts 348°
2026-04-26 05:08 -42.24546 147.38156 23942 ft 379 kts 346°
2026-04-26 05:08 -42.21933 147.37517 24540 ft 382 kts 345°
2026-04-26 05:08 -42.19333 147.36862 24979 ft 388 kts 345°
2026-04-26 05:08 -42.16647 147.36198 25502 ft 392 kts 346°
2026-04-26 05:09 -42.13937 147.35555 26071 ft 395 kts 346°
2026-04-26 05:09 -42.11239 147.34929 26565 ft 399 kts 346°
2026-04-26 05:09 -42.08481 147.34299 27030 ft 403 kts 347°
2026-04-26 05:09 -42.05709 147.33672 27545 ft 406 kts 347°
2026-04-26 05:10 -42.02925 147.33040 27907 ft 412 kts 347°
2026-04-26 05:10 -42.00078 147.32397 28409 ft 414 kts 347°
2026-04-26 05:10 -41.97221 147.31752 28826 ft 418 kts 347°
2026-04-26 05:10 -41.94354 147.31107 29307 ft 421 kts 347°
2026-04-26 05:11 -41.91454 147.30450 29732 ft 424 kts 347°
2026-04-26 05:11 -41.88500 147.29784 30166 ft 427 kts 347°
2026-04-26 05:11 -41.85587 147.29128 30555 ft 431 kts 347°
2026-04-26 05:11 -41.82599 147.28455 31136 ft 431 kts 347°
2026-04-26 05:12 -41.79694 147.27805 31846 ft 426 kts 347°
2026-04-26 05:12 -41.76783 147.27156 32527 ft 423 kts 347°
2026-04-26 05:12 -41.73914 147.26514 33079 ft 422 kts 347°
2026-04-26 05:12 -41.71003 147.25862 33603 ft 421 kts 347°
2026-04-26 05:13 -41.68144 147.25221 34126 ft 420 kts 347°
2026-04-26 05:13 -41.65248 147.24573 34555 ft 421 kts 347°
2026-04-26 05:13 -41.62374 147.23929 34961 ft 422 kts 347°
2026-04-26 05:13 -41.59459 147.23263 35372 ft 422 kts 346°
2026-04-26 05:14 -41.56587 147.22432 35713 ft 422 kts 342°
2026-04-26 05:14 -41.53750 147.21271 36090 ft 421 kts 338°
2026-04-26 05:14 -41.50970 147.19887 36433 ft 421 kts 335°
2026-04-26 05:14 -41.48257 147.18424 36813 ft 421 kts 335°
2026-04-26 05:15 -41.45534 147.16910 37145 ft 422 kts 334°
2026-04-26 05:15 -41.42800 147.15381 37428 ft 423 kts 334°
2026-04-26 05:15 -41.40068 147.13861 37671 ft 425 kts 334°
2026-04-26 05:15 -41.37299 147.12329 37925 ft 427 kts 335°
2026-04-26 05:16 -41.34531 147.10806 38095 ft 430 kts 335°
2026-04-26 05:16 -41.31768 147.09296 38094 ft 430 kts 335°
2026-04-26 05:16 -41.26231 147.06290 38104 ft 426 kts 335°
2026-04-26 05:17 -41.20766 147.03334 38105 ft 428 kts 335°
2026-04-26 05:17 -41.15198 147.00328 38102 ft 428 kts 335°
2026-04-26 05:18 -41.09713 146.97374 38105 ft 428 kts 335°
2026-04-26 05:18 -41.04177 146.94395 38108 ft 429 kts 335°
2026-04-26 05:19 -40.98638 146.91423 38112 ft 429 kts 335°
2026-04-26 05:19 -40.93096 146.88454 38105 ft 430 kts 335°
2026-04-26 05:20 -40.82161 146.82611 38114 ft 428 kts 335°
2026-04-26 05:21 -40.76631 146.79662 38116 ft 428 kts 335°
2026-04-26 05:21 -40.71102 146.76717 38112 ft 428 kts 335°
2026-04-26 05:22 -40.65607 146.73801 38113 ft 428 kts 335°
2026-04-26 05:22 -40.60061 146.70862 38113 ft 428 kts 335°
2026-04-26 05:23 -40.54540 146.67938 38109 ft 430 kts 335°
2026-04-26 05:23 -40.49005 146.65015 38117 ft 430 kts 335°
2026-04-26 05:24 -40.43429 146.62080 38113 ft 430 kts 335°
2026-04-26 05:24 -40.37874 146.59157 38109 ft 430 kts 335°
2026-04-26 05:25 -40.32342 146.56251 38107 ft 429 kts 335°
2026-04-26 05:25 -40.26781 146.53332 38101 ft 430 kts 335°
2026-04-26 05:26 -40.21223 146.50423 38114 ft 431 kts 335°
2026-04-26 05:26 -40.15645 146.47510 38111 ft 431 kts 335°
2026-04-26 05:27 -40.10074 146.44603 38102 ft 432 kts 335°
2026-04-26 05:27 -40.04482 146.41690 38115 ft 433 kts 335°
2026-04-26 05:28 -39.98897 146.38785 38116 ft 433 kts 335°
2026-04-26 05:28 -39.93318 146.35907 38110 ft 432 kts 336°
2026-04-26 05:29 -39.87664 146.33006 38112 ft 433 kts 336°
2026-04-26 05:29 -39.82033 146.30119 38108 ft 434 kts 336°
2026-04-26 05:30 -39.76407 146.27240 38108 ft 434 kts 336°
2026-04-26 05:30 -39.70790 146.24371 38109 ft 435 kts 336°
2026-04-26 05:31 -39.65127 146.21480 38103 ft 434 kts 336°
2026-04-26 05:31 -39.59517 146.18619 38116 ft 434 kts 336°
2026-04-26 05:32 -39.53869 146.15745 38120 ft 434 kts 336°
2026-04-26 05:32 -39.48241 146.12889 38122 ft 434 kts 336°
2026-04-26 05:33 -39.42620 146.10039 38104 ft 434 kts 336°
2026-04-26 05:33 -39.36975 146.07182 38093 ft 434 kts 336°
2026-04-26 05:34 -39.34170 146.05765 37940 ft 427 kts 336°
2026-04-26 05:34 -39.31411 146.04373 37646 ft 420 kts 336°
2026-04-26 05:34 -39.28705 146.03009 37167 ft 416 kts 336°
2026-04-26 05:34 -39.25997 146.01645 36607 ft 415 kts 337°
2026-04-26 05:35 -39.23340 146.00305 36022 ft 414 kts 337°
2026-04-26 05:35 -39.20643 145.98947 35368 ft 414 kts 337°
2026-04-26 05:35 -39.17989 145.97610 34783 ft 412 kts 337°
2026-04-26 05:35 -39.15317 145.96266 34313 ft 407 kts 338°
2026-04-26 05:36 -39.12695 145.94948 33817 ft 403 kts 338°
2026-04-26 05:36 -39.10100 145.93648 33317 ft 399 kts 338°
2026-04-26 05:36 -39.07539 145.92366 32825 ft 396 kts 338°
2026-04-26 05:36 -39.04989 145.91089 32331 ft 392 kts 337°
2026-04-26 05:37 -39.02463 145.89825 31842 ft 389 kts 337°
2026-04-26 05:37 -38.99950 145.88565 31354 ft 385 kts 337°
2026-04-26 05:37 -38.97450 145.87312 30877 ft 387 kts 337°
2026-04-26 05:37 -38.94880 145.86024 30369 ft 406 kts 337°
2026-04-26 05:38 -38.92195 145.84680 29842 ft 422 kts 337°
2026-04-26 05:38 -38.89449 145.83310 29304 ft 420 kts 337°
2026-04-26 05:38 -38.86744 145.81966 28770 ft 416 kts 337°
2026-04-26 05:38 -38.84060 145.80635 28243 ft 411 kts 337°
2026-04-26 05:39 -38.81385 145.79308 27712 ft 407 kts 337°
2026-04-26 05:39 -38.78781 145.78017 27191 ft 402 kts 337°
2026-04-26 05:39 -38.76157 145.76715 26666 ft 397 kts 337°
2026-04-26 05:39 -38.73595 145.75444 26157 ft 393 kts 337°
2026-04-26 05:40 -38.71051 145.74184 25650 ft 388 kts 337°
2026-04-26 05:40 -38.68568 145.72954 25158 ft 384 kts 337°
2026-04-26 05:40 -38.66058 145.71710 24657 ft 387 kts 337°
2026-04-26 05:40 -38.63532 145.70458 24147 ft 387 kts 337°
2026-04-26 05:41 -38.61027 145.69218 23646 ft 382 kts 337°
2026-04-26 05:41 -38.58569 145.68004 23146 ft 377 kts 337°
2026-04-26 05:41 -38.56125 145.66800 22666 ft 374 kts 337°
2026-04-26 05:41 -38.53729 145.65619 22183 ft 372 kts 338°
2026-04-26 05:42 -38.51313 145.64429 21709 ft 368 kts 338°
2026-04-26 05:42 -38.48925 145.63252 21230 ft 364 kts 338°
2026-04-26 05:42 -38.46594 145.62050 20735 ft 361 kts 334°
2026-04-26 05:42 -38.44346 145.60651 20156 ft 358 kts 332°
2026-04-26 05:43 -38.42188 145.59152 19661 ft 353 kts 330°
2026-04-26 05:43 -38.40067 145.57632 19200 ft 349 kts 330°
2026-04-26 05:43 -38.37945 145.56114 18791 ft 346 kts 330°
2026-04-26 05:43 -38.35839 145.54620 18379 ft 344 kts 331°
2026-04-26 05:44 -38.33750 145.53155 17940 ft 342 kts 332°
2026-04-26 05:44 -38.31677 145.51715 17482 ft 338 kts 331°
2026-04-26 05:44 -38.29635 145.50307 17054 ft 335 kts 331°
2026-04-26 05:44 -38.27584 145.48900 16610 ft 334 kts 331°
2026-04-26 05:45 -38.25552 145.47508 16155 ft 329 kts 331°
2026-04-26 05:45 -38.23533 145.46124 15713 ft 324 kts 331°
2026-04-26 05:45 -38.21578 145.44785 15279 ft 318 kts 331°
2026-04-26 05:45 -38.19637 145.43454 14859 ft 312 kts 331°
2026-04-26 05:46 -38.17752 145.42137 14526 ft 304 kts 327°
2026-04-26 05:46 -38.16274 145.40347 14367 ft 294 kts 304°
2026-04-26 05:46 -38.15454 145.37972 14149 ft 290 kts 291°
2026-04-26 05:46 -38.14875 145.35545 13711 ft 291 kts 289°
2026-04-26 05:47 -38.14277 145.33063 12968 ft 294 kts 291°
2026-04-26 05:47 -38.13623 145.30605 12176 ft 298 kts 292°
2026-04-26 05:47 -38.12923 145.28131 11410 ft 301 kts 292°
2026-04-26 05:47 -38.12204 145.25641 10826 ft 296 kts 292°
2026-04-26 05:48 -38.11507 145.23228 10549 ft 283 kts 292°
2026-04-26 05:48 -38.10847 145.20938 10355 ft 268 kts 292°
2026-04-26 05:48 -38.10220 145.18765 10137 ft 261 kts 292°
2026-04-26 05:48 -38.09595 145.16600 9808 ft 259 kts 292°
2026-04-26 05:49 -38.08979 145.14465 9446 ft 258 kts 292°
2026-04-26 05:49 -38.07721 145.10120 8443 ft 267 kts 292°
2026-04-26 05:49 -38.07091 145.07939 8161 ft 262 kts 292°
2026-04-26 05:50 -38.06466 145.05769 7844 ft 260 kts 292°
2026-04-26 05:50 -38.05847 145.03630 7500 ft 257 kts 292°
2026-04-26 05:50 -38.05230 145.01498 7208 ft 254 kts 292°
2026-04-26 05:50 -38.04630 144.99429 6908 ft 251 kts 292°
2026-04-26 05:51 -38.04026 144.97357 6548 ft 250 kts 292°
2026-04-26 05:51 -38.03437 144.95329 6248 ft 247 kts 292°
2026-04-26 05:51 -38.02837 144.93288 5937 ft 245 kts 294°
2026-04-26 05:51 -38.02031 144.91438 5717 ft 235 kts 311°
2026-04-26 05:52 -38.00737 144.90268 5592 ft 225 kts 338°
2026-04-26 05:52 -37.99209 144.89836 5304 ft 224 kts 350°
2026-04-26 05:52 -37.97686 144.89575 5033 ft 222 kts 350°
2026-04-26 05:52 -37.96166 144.89293 4837 ft 216 kts 349°
2026-04-26 05:53 -37.94673 144.89004 4433 ft 219 kts 350°
2026-04-26 05:53 -37.93169 144.88715 4114 ft 218 kts 350°
2026-04-26 05:53 -37.91710 144.88441 3984 ft 208 kts 350°
2026-04-26 05:53 -37.90307 144.88179 3877 ft 198 kts 350°
2026-04-26 05:54 -37.88965 144.87927 3778 ft 188 kts 350°
2026-04-26 05:54 -37.87691 144.87688 3669 ft 180 kts 351°
2026-04-26 05:54 -37.86460 144.87454 3421 ft 180 kts 350°
2026-04-26 05:54 -37.85233 144.87222 3271 ft 178 kts 351°
2026-04-26 05:55 -37.83986 144.86989 3148 ft 177 kts 351°
2026-04-26 05:55 -37.82764 144.86760 2931 ft 181 kts 351°
2026-04-26 05:55 -37.81464 144.86514 2492 ft 191 kts 351°
2026-04-26 05:55 -37.80217 144.86279 2434 ft 170 kts 351°
2026-04-26 05:56 -37.79093 144.86069 2443 ft 158 kts 351°
2026-04-26 05:56 -37.77989 144.85867 2306 ft 158 kts 351°
2026-04-26 05:56 -37.76943 144.85669 2073 ft 149 kts 351°
2026-04-26 05:56 -37.75921 144.85472 1826 ft 145 kts 352°
2026-04-26 05:57 -37.74931 144.85295 1596 ft 144 kts 351°
2026-04-26 05:57 -37.73940 144.85107 1392 ft 142 kts 351°
2026-04-26 05:57 -37.72950 144.84915 1185 ft 143 kts 351°
2026-04-26 05:57 -37.71965 144.84735 1011 ft 142 kts 352°
2026-04-26 05:58 -37.70985 144.84558 817 ft 143 kts 351°
2026-04-26 05:58 -37.69996 144.84361 648 ft 146 kts 350°
2026-04-26 05:58 -37.68982 144.84178 486 ft 148 kts 351°
2026-04-26 05:58 -37.67962 144.83987 366 ft 142 kts 351°
2026-04-26 05:59 -37.67178 144.83841 387 ft 76 kts 352°
2026-04-26 05:59 -37.66876 144.83891 397 ft 17 kts 21°
2026-04-26 05:59 -37.66774 144.83946 398 ft 14 kts 22°
2026-04-26 05:59 -37.66696 144.83989 399 ft 12 kts
2026-04-26 06:00 -37.66576 144.84065 400 ft 29 kts 42°
2026-04-26 06:00 -37.66520 144.84351 393 ft 34 kts 80°
2026-04-26 06:00 -37.66484 144.84634 404 ft 30 kts 83°
2026-04-26 06:00 -37.66529 144.84805 403 ft 18 kts 130°
2026-04-26 06:01 -37.66539 144.84947 409 ft 13 kts 79°
2026-04-26 06:01 -37.66565 144.85046 412 ft 15 kts 140°
2026-04-26 06:01 -37.66641 144.85048 413 ft 5 kts 241°
2026-04-26 06:01 -37.66651 144.84996 411 ft 0 kts 262°